Weather History for KBVN - March, 2013

Change the Weather History Date:

Saturday, March 30, 2013

  Actual Average (KOFK) Record (KOFK)
Temperature  
Mean Temperature 56 °F 43 °F  
Max Temperature 64 °F 55 °F 87 °F (1968)
Min Temperature 47 °F 31 °F 10 °F (1944)
Degree Days  
Heating Degree Days 10 22  
Month to date heating degree days 834  
Since 1 July heating degree days 5927  
Cooling Degree Days 0 0  
Month to date cooling degree days 0  
Year to date cooling degree days 0  
Growing Degree Days 6 (Base 50)    
Moisture  
Dew Point 42 °F    
Average Humidity 68    
Maximum Humidity 95    
Minimum Humidity 30    
Precipitation  
Precipitation 0.07 in 0.08 in 1.05 in (1949)
Month to date precipitation 1.69  
Year to date precipitation 3.04  
Snow  
Snow 0.00 in 0.10 in - ()
Month to date snowfall 4.9  
Since 1 July snowfall 27.7  
Snow Depth -    
Sea Level Pressure  
Sea Level Pressure 29.97 in    
Wind  
Wind Speed 6 mph (North)    
Max Wind Speed 15 mph    
Max Gust Speed 30 mph    
Visibility 8 miles    
Events Rain , Thunderstorm    
T = Trace of Precipitation, MM = Missing Value Source: NWS Daily Summary

Daily Weather History Graph

Daily Weather History Graph

Search for Another Location

Airport or City:

Trip Planner

Search our weather history database for the weather conditions in past years. The results will help you decide how hot, cold, wet, or windy it might be!

Date:

Astronomy

Mar. 30, 2013 Rise Set
Actual Time 7:18 AM CDT 7:55 PM CDT
Civil Twilight 6:50 AM CDT 8:23 PM CDT
Nautical Twilight 6:16 AM CDT 8:56 PM CDT
Astronomical Twilight 5:42 AM CDT 9:31 PM CDT
Moon No Moon Rise 9:11 AM CDT
Length of Visible Light 13h 33m
Length of Day
12h 37m
Waning Gibbous, 86% of the Moon is Illuminated
Mar 30
Waning Gibbous
Apr 2
Last Quarter
Apr 10
New
Apr 18
First Quarter
Apr 25
Full

Hourly Weather History & Observations

Time (CDT) Temp. Dew Point Humidity Pressure Visibility Wind Dir Wind Speed Gust Speed Precip Events Conditions
12:15 AM 50.9 °F 45.1 °F 81% 30.01 in 10.0 mi East 6.9 mph - N/A Thunderstorm Mostly Cloudy
12:35 AM 50.4 °F 44.6 °F 81% 30.00 in 10.0 mi SE 8.1 mph - N/A   Overcast
12:55 AM 48.9 °F 44.1 °F 83% 30.00 in 10.0 mi SE 5.8 mph - N/A   Overcast
1:15 AM 47.3 °F 43.7 °F 87% 30.00 in 10.0 mi Calm Calm - N/A   Mostly Cloudy
1:35 AM 48.4 °F 45.0 °F 88% 30.00 in 10.0 mi NE 5.8 mph - N/A   Overcast
1:55 AM 48.2 °F 44.2 °F 86% 29.99 in 10.0 mi ENE 8.1 mph - N/A   Overcast
2:15 AM 49.1 °F 45.0 °F 86% 30.01 in 10.0 mi NNE 9.2 mph - 0.01 in Rain , Thunderstorm Rain
2:35 AM 48.4 °F 44.6 °F 87% 29.99 in 10.0 mi NE 9.2 mph - 0.06 in Rain , Thunderstorm Light Thunderstorms and Rain
2:55 AM 47.8 °F 44.6 °F 89% 29.98 in 7.0 mi ENE 8.1 mph - 0.07 in Thunderstorm Thunderstorm
3:15 AM 48.4 °F 44.6 °F 87% 29.97 in 10.0 mi East 6.9 mph - N/A Thunderstorm Overcast
3:35 AM 48.2 °F 44.8 °F 88% 29.97 in 7.0 mi Calm Calm - N/A Thunderstorm Overcast
3:55 AM 48.0 °F 44.8 °F 89% 29.96 in 7.0 mi SE 3.5 mph - N/A Thunderstorm Thunderstorm
4:15 AM 47.5 °F 45.0 °F 91% 29.96 in 5.0 mi SE 3.5 mph - N/A Thunderstorm Overcast
4:35 AM 48.2 °F 45.5 °F 90% 29.95 in 7.0 mi Calm Calm - N/A Thunderstorm Overcast
4:55 AM 48.0 °F 45.7 °F 92% 29.95 in 5.0 mi Calm Calm - N/A   Overcast
5:15 AM 48.2 °F 46.0 °F 92% 29.95 in 5.0 mi Calm Calm - N/A   Overcast
5:35 AM 48.4 °F 46.0 °F 92% 29.95 in 5.0 mi Calm Calm - N/A   Overcast
5:55 AM 48.4 °F 46.4 °F 93% 29.95 in 4.0 mi NW 4.6 mph - N/A   Overcast
6:15 AM 49.1 °F 46.9 °F 92% 29.96 in 5.0 mi Calm Calm - N/A   Overcast
6:35 AM 49.3 °F 46.9 °F 92% 29.96 in 5.0 mi NW 3.5 mph - N/A   Overcast
6:55 AM 48.4 °F 46.4 °F 93% 29.96 in 3.0 mi Calm Calm - N/A   Overcast
7:15 AM 47.8 °F 46.0 °F 93% 29.97 in 2.5 mi Calm Calm - N/A   Overcast
7:35 AM 47.8 °F 46.4 °F 95% 29.97 in 2.0 mi Calm Calm - N/A   Overcast
7:55 AM 47.5 °F 45.9 °F 94% 29.98 in 1.5 mi Calm Calm - N/A   Overcast
8:15 AM 47.7 °F 46.4 °F 95% 29.98 in 1.8 mi Calm Calm - N/A   Overcast
8:35 AM 49.3 °F 48.0 °F 95% 29.98 in 2.5 mi Calm Calm - N/A   Scattered Clouds
8:55 AM 51.1 °F 49.6 °F 95% 29.98 in 3.0 mi Calm Calm - N/A   Scattered Clouds
9:15 AM 51.8 °F 49.5 °F 92% 29.99 in 5.0 mi WNW 8.1 mph - N/A   Mostly Cloudy
9:35 AM 50.7 °F 46.0 °F 84% 29.99 in 10.0 mi NNW 11.5 mph - N/A   Scattered Clouds
9:55 AM 51.1 °F 44.8 °F 79% 29.98 in 10.0 mi NNW 11.5 mph - N/A   Clear
10:15 AM 52.0 °F 44.1 °F 74% 29.98 in 10.0 mi NNW 11.5 mph - N/A   Clear
10:35 AM 53.6 °F 43.9 °F 70% 29.99 in 10.0 mi NNW 12.7 mph - N/A   Clear
10:55 AM 54.5 °F 43.2 °F 66% 29.99 in 10.0 mi North 11.5 mph 17.3 mph N/A   Scattered Clouds
11:15 AM 55.9 °F 44.2 °F 65% 29.99 in 10.0 mi NNW 13.8 mph 18.4 mph N/A   Mostly Cloudy
11:35 AM 56.3 °F 43.9 °F 63% 29.99 in 10.0 mi North 11.5 mph - N/A   Mostly Cloudy
11:55 AM 57.6 °F 43.2 °F 59% 29.99 in 10.0 mi North 11.5 mph - N/A   Scattered Clouds
12:15 PM 58.6 °F 42.6 °F 55% 29.99 in 10.0 mi NNW 12.7 mph - N/A   Scattered Clouds
12:35 PM 57.7 °F 41.2 °F 54% 29.99 in 10.0 mi North 11.5 mph - N/A   Mostly Cloudy
12:55 PM 60.6 °F 39.6 °F 46% 29.99 in 10.0 mi North 15.0 mph - N/A   Mostly Cloudy
1:15 PM 61.0 °F 39.0 °F 44% 29.99 in 10.0 mi North 10.4 mph 17.3 mph N/A   Scattered Clouds
1:35 PM 62.1 °F 37.4 °F 40% 29.99 in 10.0 mi North 12.7 mph 19.6 mph N/A   Clear
1:55 PM 62.8 °F 38.3 °F 40% 29.98 in 10.0 mi North 11.5 mph - N/A   Clear
2:15 PM 63.3 °F 37.6 °F 39% 29.98 in 10.0 mi North 15.0 mph 20.7 mph N/A   Scattered Clouds
2:35 PM 63.3 °F 37.4 °F 38% 29.97 in 10.0 mi North 8.1 mph 11.5 mph N/A   Scattered Clouds
2:55 PM 64.2 °F 35.1 °F 34% 29.96 in 10.0 mi North 13.8 mph 29.9 mph N/A   Clear
3:15 PM 64.4 °F 34.0 °F 32% 29.96 in 10.0 mi North 11.5 mph 17.3 mph N/A   Clear
3:35 PM 63.1 °F 34.0 °F 34% 29.96 in 10.0 mi North 15.0 mph 18.4 mph N/A   Mostly Cloudy
3:55 PM 64.8 °F 32.9 °F 30% 29.96 in 10.0 mi North 10.4 mph 13.8 mph N/A   Scattered Clouds
4:15 PM 62.6 °F 32.4 °F 32% 29.96 in 10.0 mi North 9.2 mph 17.3 mph N/A   Mostly Cloudy
4:35 PM 62.8 °F 32.4 °F 32% 29.96 in 10.0 mi NW 9.2 mph - N/A   Scattered Clouds
4:55 PM 63.0 °F 32.0 °F 31% 29.95 in 10.0 mi North 9.2 mph - N/A   Mostly Cloudy
5:15 PM 64.0 °F 32.2 °F 30% 29.94 in 10.0 mi North 10.4 mph - N/A   Mostly Cloudy
5:35 PM 62.6 °F 32.4 °F 32% 29.94 in 10.0 mi NNW 8.1 mph - N/A   Scattered Clouds
5:55 PM 61.7 °F 33.3 °F 34% 29.94 in 10.0 mi North 6.9 mph - N/A   Clear
6:15 PM 62.4 °F 34.0 °F 35% 29.94 in 10.0 mi North 8.1 mph - N/A   Clear
6:35 PM 61.5 °F 34.3 °F 36% 29.94 in 10.0 mi North 9.2 mph - N/A   Scattered Clouds
6:55 PM 56.1 °F 39.2 °F 53% 29.96 in 10.0 mi North 13.8 mph 20.7 mph N/A   Scattered Clouds
7:15 PM 55.4 °F 39.7 °F 56% 29.96 in 10.0 mi North 8.1 mph - N/A   Mostly Cloudy
7:35 PM 54.7 °F 40.1 °F 58% 29.96 in 10.0 mi North 4.6 mph - N/A   Overcast
7:55 PM 53.6 °F 40.5 °F 61% 29.95 in 10.0 mi Calm Calm - N/A   Scattered Clouds
8:15 PM 52.7 °F 40.3 °F 63% 29.96 in 10.0 mi Calm Calm - N/A   Scattered Clouds
8:35 PM 50.7 °F 40.8 °F 69% 29.96 in 10.0 mi WNW 3.5 mph - N/A   Mostly Cloudy
8:55 PM 50.5 °F 40.6 °F 69% 29.98 in 10.0 mi WSW 8.1 mph - N/A   Overcast
9:15 PM 53.4 °F 39.9 °F 60% 29.98 in 10.0 mi West 3.5 mph - N/A   Overcast
9:35 PM 53.1 °F 39.7 °F 61% 29.98 in 10.0 mi NW 3.5 mph - N/A   Overcast
9:55 PM 51.8 °F 41.0 °F 67% 29.99 in 10.0 mi NW 4.6 mph - N/A   Mostly Cloudy
10:15 PM 51.8 °F 41.9 °F 69% 29.99 in 10.0 mi NW 3.5 mph - N/A   Overcast
10:35 PM 51.6 °F 42.1 °F 70% 30.00 in 10.0 mi NNW 5.8 mph - N/A   Overcast
10:55 PM 51.1 °F 42.4 °F 72% 30.01 in 10.0 mi NNE 4.6 mph - N/A   Overcast
11:15 PM 50.0 °F 41.9 °F 74% 30.00 in 10.0 mi NW 3.5 mph - N/A   Overcast
11:35 PM 49.6 °F 41.7 °F 74% 30.00 in 10.0 mi NNW 3.5 mph - N/A   Scattered Clouds
11:55 PM 48.7 °F 41.2 °F 75% 30.00 in 10.0 mi NW 4.6 mph - N/A   Scattered Clouds